Regional Weather Roundup
Issued by NWS Kansas City/Pleasant Hill, MO

Home | Current Version | Previous Version | Text Only | Print | Product List | Glossary On
Versions: 1 2 3 4 5 6 7 8 9 10 11 12 13 14 15 16 17 18 19 20 21 22 23 24 25 26 27 28 29 30 31 32 33 34 35 36 37 38 39 40 41 42 43 44 45 46 47 48 49 50
000
ASUS43 KEAX 300810
RWREAX

WEATHER ROUNDUP FOR EASTERN KANSAS AND NORTHWEST MISSOURI
NATIONAL WEATHER SERVICE KANSAS CITY/PLEASANT HILL MO
300 AM CDT WED JUL 30 2014

KSZ040-057-103>105-MOZ028-029-037-043-300900-
...KANSAS CITY METROPOLITAN AREA...

CITY           SKY/WX    TMP DP  RH WIND       PRES   REMARKS
K.C. INTL      PTCLDY    64  59  83 N5        30.10F
K.C. DOWNTOWN  CLOUDY    70  60  70 N3        30.09F
LEES SUMMIT    MOCLDY    64  59  83 CALM      30.10F
OLATHE - IXD   CLOUDY    70  59  68 E3        30.10F
OLATHE - OJC   MOCLDY    70  59  68 NE3       30.10S
LAWRENCE       CLOUDY    69  64  84 CALM      30.10S

$$

MOZ001>008-011>017-020>025-030>033-038>040-044>046-053-054-300900-
...NORTHERN AND CENTRAL MISSOURI...

CITY           SKY/WX    TMP DP  RH WIND       PRES   REMARKS
ST. JOSEPH     PTCLDY    60  58  92 CALM      30.10F
MOSBY            N/A     59  59 100 CALM      30.10S
WHITEMAN AFB   CLEAR     59  51  75 SW2       30.08F
CLINTON        PTCLDY    63  61  94 CALM      30.09S
SEDALIA        PTCLDY    61  57  87 S5        30.09F
WARSAW         NOT AVBL
CHILLICOTHE      N/A     59  56  89 CALM      30.11S
MOBERLY        PTCLDY    61  55  82 CALM      30.09F
KIRKSVILLE     MOCLDY    62  57  83 CALM      30.10F

$$

MOZ041-047>049-056>058-063>065-088>090-097-300900-
...EASTERN AND SOUTHERN MISSOURI...

CITY           SKY/WX    TMP DP  RH WIND       PRES   REMARKS
ST. LOUIS INTL MOCLDY    68  57  68 CALM      30.09S
SPIRIT OF STL  CLOUDY    63  59  87 CALM      30.08S
COLUMBIA       CLEAR     62  56  80 SE5       30.09F
JEFFERSON CITY CLEAR     60  56  86 CALM      30.08F
MEXICO         MOCLDY   N/A N/A N/A CALM      30.09F
HANNIBAL       PTCLDY    63  54  72 CALM      30.09F
ROLLA          PTCLDY    65  53  65 E7        30.08F
LEBANON        CLEAR     64  55  72 CALM      30.10F
OSAGE BEACH    CLEAR     59  55  88 CALM      30.08F
SPRINGFIELD    CLOUDY    71  58  63 CALM      30.08F
BRANSON        MOCLDY    66  59  77 SW3       30.10S
NEVADA         CLOUDY    68  64  88 CALM      30.09F
JOPLIN         CLOUDY    66  63  90 CALM      30.09S
WEST PLAINS    CLEAR     61  57  87 CALM      30.11S
MALDEN         CLEAR     64  55  72 CALM      30.09F

$$

IAZ060-094-KSZ022-034>040-054-083-096-NEZ052-066-093-300900-
...KANSAS...SOUTHEAST NEBRASKA AND IOWA...

CITY           SKY/WX    TMP DP  RH WIND       PRES   REMARKS
TOPEKA         CLOUDY    71  62  73 CALM      30.10S
MANHATTAN      LGT RAIN  67  63  87 SE3       30.12S FOG
EMPORIA        CLOUDY    67  63  87 NE6       30.09F
CHANUTE        CLOUDY    68  64  87 N3        30.08F
WICHITA        CLOUDY    69  60  73 S3        30.07S
OMAHA          PTCLDY    57  54  89 NW5       30.13S
LINCOLN        CLOUDY    62  56  80 N3        30.14S
FALLS CITY     MOCLDY    62  57  83 CALM      30.11S
LAMONI         CLEAR     58  54  86 NW5       30.11F
DES MOINES     CLEAR     62  56  80 NW3       30.09F

$$



USA.gov is the U.S. government's official web portal to all federal, state and local government web resources and services.